O/OREOS (USA 219) (37224 NORAD) Tracking and Keplerian Element Data

This shows tracking and keplerian element data for the satellite.

Feedback or suggestion? Click here.




ElementValue
Catalog37224
NameO/OREOS (USA 219)
Epoch Orbit2530
Epoch Day286.65961781
Epoch Year2024
RAAN23.3725
Inclination71.9743
Eccentricity0.0014111
Argument of Perigee157.9557
Mean Anonmoly202.2221
Mean Motion14.8878334
Decay Rate7.876E-05
L11 37224U 10062C 24286.65961781 .00007876 00000+0 84495-3 0 9992
L22 37224 71.9743 23.3725 0014111 157.9557 202.2221 14.88783340 25307



Live tracking and technical data element details for O/OREOS (USA 219) (NORAD 37224). O/OREOS (USA 219) can be tracked NOW for your location showing map with azimuth and elevation plus other details from your city location.







IsCatalogInMostPopularTable: catalog: 37224, numindb: 11
Update: records affected: 1



GetName: 37224 O/OREOS (USA 219)

Hit Count: updated at: Thu, 23 Jan 2025 17:38:26 GMT